RH
11 17 17 17 17 19 19 18 17 16 15 15 15 15 15 15 15 15 14 14 14 14 15 17 19 22 24 23 23 26 28 31 33 35 38 42 49 58 72 74 75 85 73 56 51 51 49
9 10 15 17 17 16 20 19 19 18 17 16 15 16 16 16 15 14 14 14 14 15 14 14 17 20 24 23 22 25 27 29 32 34 36 39 46 55 69 78 78 61 68 67 57 56 62
8 8 9 12 16 17 16 19 19 19 18 17 17 17 16 15 14 13 14 13 12 12 15 14 15 19 23 19 19 22 26 28 31 32 33 38 46 53 60 71 62 68 80 56 41 46 58
8 8 8 9 10 13 16 16 16 17 17 17 16 14 12 11 11 11 12 11 10 11 14 15 16 21 19 18 18 19 20 24 28 29 34 41 48 56 64 58 49 54 54 62 39 44 40
8 8 8 8 9 10 11 14 15 15 15 14 14 12 10 8 7 6 10 8 9 13 18 15 20 21 17 16 16 19 21 22 25 30 35 43 50 53 44 62 63 59 70 63 52 42 42
8 8 8 8 8 9 10 10 11 13 14 14 14 13 12 10 8 6 6 6 9 11 22 19 23 18 14 16 16 19 20 22 28 29 33 40 39 50 59 67 71 67 73 63 62 46 49
9 8 8 8 8 8 9 10 10 12 12 13 13 13 12 11 9 9 5 5 8 13 13 14 19 19 17 16 18 20 20 24 28 28 45 43 49 52 53 57 60 65 72 68 54 45 56
14 11 9 8 9 9 9 9 10 11 12 13 13 12 12 12 10 10 10 10 27 26 41 21 24 23 24 19 23 19 22 25 33 42 45 50 38 37 51 51 51 57 58 59 56 48 52
22 16 12 10 9 9 10 10 10 11 11 12 13 13 13 12 11 10 12 20 31 40 58 30 35 29 21 22 28 23 27 34 43 34 46 50 36 46 46 42 56 53 53 60 64 60 44
23 22 18 14 12 10 10 10 11 11 11 12 14 14 14 14 13 12 13 18 28 42 44 26 25 23 20 23 23 26 29 32 32 38 50 44 39 46 53 34 54 62 50 61 64 60 59
37 27 25 20 15 13 12 12 11 11 12 12 13 14 14 15 15 14 16 18 33 48 40 18 22 22 21 25 29 22 29 32 36 39 35 16 46 54 44 34 52 47 54 60 59 58 51
72 58 41 28 21 16 14 15 14 13 13 13 14 14 15 16 15 16 16 20 41 48 32 22 25 28 22 24 29 27 23 27 32 26 28 43 34 46 44 49 42 46 46 43 58 62 74
85 80 71 56 33 23 18 17 17 16 16 17 20 16 14 15 18 18 19 26 51 49 19 23 26 28 30 29 27 32 33 38 36 34 40 33 23 26 40 38 40 54 58 66 57 78 68
95 90 87 80 66 43 36 19 20 21 21 26 22 18 15 15 19 22 22 26 20 15 20 28 24 24 27 30 23 27 25 30 35 31 38 48 42 26 30 43 50 54 53 75 45 74 74
100 100 97 98 90 86 82 34 24 27 29 31 28 21 18 19 26 28 32 42 32 17 31 33 20 17 20 21 25 23 21 33 36 30 31 34 25 27 36 43 42 43 69 52 66 63 62
100 100 98 100 99 98 96 84 33 40 38 32 27 23 21 31 28 30 34 37 22 33 34 30 19 23 26 25 25 28 21 30 37 33 31 31 46 29 30 26 30 48 46 42 60 55 65
98 99 98 100 99 98 99 98 46 61 44 32 27 23 28 29 32 36 38 35 33 32 33 31 27 30 28 28 30 28 20 24 35 37 35 37 40 34 26 25 29 47 45 46 48 64 53
100 99 100 99 96 97 100 99 62 64 47 33 27 29 29 34 31 67 47 45 37 28 36 34 35 32 31 33 32 27 23 25 34 33 31 38 45 51 30 26 32 41 41 38 46 41 52
98 100 97 99 100 99 99 100 96 54 45 36 28 22 30 30 33 31 40 41 36 32 34 39 38 37 34 34 30 26 25 30 31 30 30 29 34 44 35 30 26 29 37 42 47 55 55
59 86 98 99 99 99 100 100 96 56 43 39 28 35 32 40 33 40 36 29 33 38 36 37 37 32 33 33 35 37 35 30 28 28 35 33 43 33 39 29 28 36 35 38 38 71 53
71 68 80 95 98 100 100 100 77 64 47 40 28 30 33 40 50 52 48 47 40 31 36 37 34 35 34 35 35 35 31 33 27 32 48 48 56 56 46 45 46 46 47 50 56 50 52
73 75 83 96 100 100 100 100 86 66 46 42 28 30 44 39 45 63 59 46 47 36 37 34 36 37 37 38 36 36 35 36 37 35 50 62 51 59 70 55 54 54 49 55 55 52 54
77 76 78 94 100 98 100 100 78 75 50 44 38 33 33 32 54 49 42 36 39 35 32 35 35 34 32 33 31 37 43 39 37 33 53 56 64 55 65 47 46 53 47 54 92 82 85
86 83 69 99 100 100 100 100 94 87 60 50 50 45 37 43 46 50 32 37 42 32 29 32 34 41 36 55 55 55 59 61 60 54 40 52 60 52 63 48 68 74 78 71 83 84 80
85 84 83 93 99 99 100 100 100 82 58 55 59 51 34 39 34 36 34 37 37 41 47 53 52 41 60 56 70 76 76 60 56 68 62 50 56 60 62 64 53 86 82 89 95 93 83
93 91 99 93 98 98 100 100 100 73 62 60 65 58 43 34 40 32 37 40 61 75 70 62 58 66 60 69 75 81 86 69 70 64 56 54 52 61 65 67 69 88 78 76 80 94 85
100 94 100 95 88 100 100 100 98 86 76 74 65 57 56 37 40 44 56 70 66 70 81 77 73 74 71 82 86 83 85 68 80 74 75 69 66 68 68 76 70 84 75 75 98 94 87
100 100 100 98 100 100 99 100 100 94 90 83 66 56 58 46 70 67 73 75 80 76 88 85 78 91 85 89 81 79 86 80 91 75 72 76 86 88 83 89 90 82 72 78 90 81 89
99 100 100 98 95 100 100 100 98 93 93 71 68 56 64 74 84 88 85 88 89 89 86 86 80 85 78 85 91 86 92 93 89 91 71 82 87 87 91 93 93 93 88 84 86 95 100
Wind_Speed
8 9 10 11 12 12 11 11 11 11 10 10 11 11 11 12 12 13 13 13 13 13 12 13 14 13 8 5 5 10 11 10 8 9 10 11 7 6 3 5 7 5 6 12 21 23 24
6 7 8 9 11 12 11 10 11 11 11 11 11 12 13 14 15 15 15 15 14 14 13 13 13 13 8 4 10 11 12 9 8 10 12 10 6 8 6 5 2 5 12 25 19 18 11
6 7 7 8 8 10 12 11 10 11 11 11 13 14 15 15 15 14 15 17 16 15 13 11 11 13 8 4 10 13 13 10 7 11 13 9 7 5 5 5 6 11 7 9 3 7 3
5 7 8 8 9 9 9 10 11 11 12 13 15 15 16 17 18 18 18 20 21 13 11 9 9 11 4 7 9 10 12 5 7 7 9 5 5 7 3 11 9 5 1 5 7 9 5
5 5 6 8 9 9 9 10 11 11 12 13 14 15 17 18 18 18 18 19 19 13 9 8 9 7 3 7 13 10 14 8 6 7 6 4 5 3 5 4 5 5 5 5 9 3 4
6 6 6 7 8 8 9 9 10 11 12 13 14 16 17 18 19 18 18 19 14 13 6 8 6 4 3 10 15 7 14 10 6 7 2 4 3 3 3 5 4 7 5 5 6 7 5
7 7 6 6 7 8 9 9 10 11 12 13 14 15 17 18 19 17 20 15 9 4 11 7 6 5 8 15 8 7 16 9 6 3 4 5 6 4 8 4 6 7 4 6 6 4 6
8 8 7 8 8 8 9 10 10 11 12 13 14 15 17 19 20 16 18 10 9 8 11 9 6 8 8 11 6 7 15 6 5 3 7 5 2 5 7 5 5 5 4 7 9 2 1
9 9 9 9 9 9 9 11 12 12 13 15 16 17 17 18 18 17 16 16 14 12 3 4 0 3 4 9 6 8 14 6 4 5 4 2 4 8 5 4 8 4 3 6 5 8 0
10 10 10 10 10 11 11 11 12 14 14 16 16 16 18 18 9 17 12 16 15 13 5 3 1 1 2 7 2 7 8 5 4 4 5 4 4 6 7 3 3 5 2 5 5 5 3
11 11 12 11 11 11 12 12 12 13 15 15 17 17 18 16 14 13 13 14 12 6 4 3 2 3 6 2 6 3 8 3 1 3 4 4 6 6 5 7 1 8 5 3 2 3 3
14 13 13 13 12 12 12 13 12 13 15 16 17 19 18 17 16 13 13 13 6 6 5 5 2 4 5 4 3 6 5 5 2 1 1 5 5 1 3 7 2 11 3 4 4 3 5
18 18 16 15 16 14 14 14 14 12 13 15 18 19 18 17 14 13 12 7 5 4 4 7 4 5 2 4 5 5 4 6 4 6 7 7 3 5 3 7 7 11 7 4 6 5 2
24 21 19 20 17 18 16 15 14 14 13 15 17 18 17 17 14 12 6 5 2 2 1 3 4 4 3 4 2 6 3 4 4 4 2 3 9 7 6 2 3 4 3 3 1 2 5
23 26 22 25 25 22 20 16 16 14 14 14 17 17 17 14 9 6 3 3 6 4 2 5 5 4 4 3 3 6 2 1 1 1 2 4 5 4 2 2 2 6 5 1 3 1 1
27 26 25 27 22 23 22 19 16 14 15 14 15 16 12 6 6 3 3 5 3 2 2 1 1 2 3 5 6 6 3 1 1 1 1 0 4 1 5 2 3 4 1 4 4 4 4
27 30 26 24 23 23 22 22 18 15 14 11 12 8 4 5 5 1 2 5 4 3 1 1 1 3 1 3 3 4 3 2 2 1 4 2 2 6 3 4 1 5 3 5 4 2 2
31 31 26 24 24 25 23 24 17 14 13 10 5 1 4 4 3 2 2 4 2 3 1 1 2 2 2 1 3 2 2 1 4 1 3 1 3 4 5 3 2 2 2 4 4 4 1
34 32 33 28 24 28 26 26 21 14 11 7 4 4 4 3 2 1 5 4 3 2 1 1 2 2 0 1 2 2 2 1 4 3 1 2 2 5 7 3 1 2 1 3 4 3 4
35 34 33 29 27 28 27 26 20 15 11 8 4 2 1 2 2 4 2 3 3 1 2 1 1 1 1 1 1 3 2 2 8 4 2 3 2 6 6 7 1 4 2 4 4 2 4
31 31 31 31 28 25 29 25 20 16 13 10 5 4 3 2 2 3 1 2 1 1 2 1 1 1 1 1 3 4 1 5 5 3 3 4 5 5 6 9 4 7 10 7 9 7 7
28 28 28 31 27 22 27 28 22 19 16 15 5 4 3 3 2 4 2 4 5 2 2 2 3 2 2 4 6 4 1 2 6 3 2 3 3 1 5 9 4 7 9 8 4 1 8
25 27 27 32 22 24 27 27 24 21 20 14 14 9 4 3 3 4 4 5 5 4 1 1 5 3 2 6 6 10 16 18 14 3 2 1 2 1 5 3 7 6 2 2 5 6 3
23 24 25 28 27 22 26 27 26 25 23 22 13 9 5 4 4 5 3 7 6 4 2 3 2 2 1 9 15 16 20 22 14 13 14 4 3 2 4 3 2 3 6 9 13 8 9
24 23 22 24 24 24 25 28 26 24 24 25 20 15 7 3 6 4 8 4 3 3 3 3 2 3 5 6 4 6 4 5 3 5 3 6 4 3 2 2 3 3 3 3 3 5 8
26 25 21 23 23 24 26 27 29 28 26 24 21 21 11 2 6 3 6 7 4 2 2 2 4 3 1 3 1 2 3 2 4 3 8 6 3 2 1 2 5 2 3 9 5 4 10
30 27 26 23 25 29 29 27 31 29 25 22 18 23 18 6 5 8 4 4 5 3 2 1 1 1 0 1 2 3 3 2 3 2 3 3 1 5 4 4 3 3 16 8 3 1 11
31 28 29 27 26 28 26 32 30 27 25 20 21 19 22 8 5 8 6 5 5 5 3 3 2 1 2 2 2 2 3 3 2 3 2 5 5 4 2 3 7 18 1 1 3 4 10
32 33 31 30 29 29 29 29 29 27 22 21 17 17 20 8 3 8 8 8 7 7 6 7 2 4 6 2 1 1 3 1 3 3 2 2 1 1 1 1 5 13 12 4 4 6 9
Wind_Direction
41 42 41 41 36 36 38 37 33 31 31 27 21 14 9 3 356 349 342 335 327 323 326 333 344 345 348 338 332 352 359 349 345 347 345 341 344 344 331 302 298 212 270 278 281 274 252
33 36 35 34 31 31 30 31 32 31 24 19 14 9 7 2 353 347 343 336 327 316 313 317 328 333 332 328 352 351 353 344 332 335 329 328 319 321 286 262 207 266 285 288 297 293 250
15 19 20 21 25 25 25 22 15 13 15 14 8 3 359 355 349 341 339 334 329 314 303 308 314 323 308 316 356 351 348 338 330 322 317 318 307 308 312 287 289 284 307 323 296 324 278
1 4 5 4 8 12 12 15 11 11 5 358 358 356 352 347 345 343 337 334 328 319 306 292 312 316 280 319 349 350 352 341 326 327 325 318 309 301 274 303 321 332 49 352 301 348 359
332 350 356 355 1 359 357 1 360 3 1 1 356 352 351 347 344 341 335 333 328 319 312 293 305 315 292 329 336 344 350 342 332 335 352 353 322 324 334 5 350 9 293 300 316 8 344
319 332 349 344 347 349 348 350 350 349 349 347 347 346 345 344 342 341 341 337 326 317 310 302 292 318 297 327 331 352 348 342 350 337 313 354 358 30 27 42 312 295 311 295 283 306 342
306 317 322 323 337 336 336 339 341 340 339 338 339 339 337 338 341 344 350 352 349 327 317 265 272 273 311 330 329 344 353 345 344 37 15 357 44 324 297 243 239 268 252 274 275 269 344
296 300 308 316 320 323 329 328 330 333 331 333 336 337 336 337 339 347 354 29 16 313 309 295 265 273 314 332 318 353 353 9 26 4 339 11 319 298 289 287 274 299 292 319 295 279 333
288 291 295 301 308 315 320 324 328 330 329 331 336 338 337 339 338 346 358 9 355 339 285 309 306 319 335 338 325 331 354 353 65 11 15 182 273 325 337 323 347 338 312 313 266 319 141
286 286 290 294 304 310 314 320 325 325 328 331 334 339 337 341 341 343 349 349 346 343 36 287 238 153 321 323 280 331 354 2 13 346 334 242 311 337 312 338 32 317 85 295 310 24 16
285 291 292 292 295 298 305 311 318 323 325 332 332 337 336 343 333 336 336 340 343 353 7 313 329 337 325 358 323 2 359 18 343 316 51 280 346 348 339 305 359 257 346 293 354 36 20
274 278 287 289 287 289 295 302 311 320 323 329 332 331 333 334 330 329 332 335 342 44 265 353 326 352 7 3 358 321 359 360 350 50 333 261 298 285 272 310 274 296 31 36 47 47 39
268 272 278 284 288 285 290 294 300 312 319 325 325 326 327 325 322 323 327 334 32 121 330 326 336 10 327 326 344 40 21 14 35 23 3 327 338 323 352 350 355 12 30 3 19 15 249
264 266 271 277 279 283 284 287 295 306 314 318 320 322 322 320 321 323 333 48 158 244 302 332 333 326 356 5 353 342 40 30 32 65 45 41 333 9 350 63 293 349 46 106 30 1 292
261 264 268 271 274 275 280 281 289 302 305 313 314 318 315 316 326 340 335 58 216 196 256 341 331 26 328 14 344 13 58 124 198 77 56 358 288 319 39 334 70 322 40 259 103 178 54
256 259 268 268 285 280 280 274 282 294 298 310 315 318 302 317 328 344 74 239 242 226 289 41 295 45 326 323 357 13 0 288 159 121 100 8 301 317 293 37 35 79 229 26 11 23 356
252 257 260 268 271 283 280 274 271 284 289 303 316 318 291 316 321 310 180 230 280 259 207 117 273 305 8 314 335 308 323 334 348 65 81 109 122 291 355 34 289 357 22 49 111 95 111
250 252 252 261 263 275 276 270 259 272 281 299 295 317 282 303 310 49 231 202 290 277 269 131 133 196 158 318 300 302 304 293 14 21 31 28 152 292 272 295 294 172 127 113 107 294 101
251 248 248 252 259 274 270 268 260 253 260 275 269 269 284 263 229 277 294 288 250 273 250 162 162 192 175 222 316 227 301 9 42 33 76 158 331 327 349 359 5 58 106 124 109 98 207
253 251 248 251 250 261 267 258 249 242 242 245 272 335 248 203 190 154 240 260 288 323 287 223 205 135 130 265 203 287 295 304 328 273 252 154 177 182 215 240 130 298 224 201 142 157 207
254 251 247 242 246 261 256 246 231 229 222 221 220 245 206 266 237 187 214 268 218 259 227 211 20 331 148 270 310 249 259 319 307 289 153 140 224 180 257 274 238 256 258 220 191 189 192
253 248 246 238 243 254 244 240 225 224 212 213 234 190 198 267 199 152 216 243 200 207 204 221 161 182 202 202 205 276 1 228 248 342 53 18 284 183 260 264 269 257 267 256 221 232 267
251 246 245 236 247 252 238 239 218 221 212 209 222 219 212 217 173 127 219 223 207 156 191 217 156 128 262 258 275 278 275 262 250 203 158 251 199 2 266 335 309 296 12 96 111 58 328
250 248 243 233 237 244 239 241 227 218 215 213 223 212 195 252 195 200 202 210 198 187 222 181 210 142 236 311 302 282 267 265 253 238 215 189 157 199 282 348 257 344 19 95 103 67 34
249 246 241 234 235 237 241 239 228 214 217 219 228 220 203 249 209 234 219 209 183 189 195 240 237 209 323 332 352 330 334 355 79 55 206 178 155 243 247 245 303 246 36 40 37 89 36
245 246 246 238 231 231 234 236 225 215 217 223 229 225 209 213 236 198 167 192 187 204 347 228 180 296 322 85 87 251 272 279 312 10 43 92 83 156 178 236 256 71 341 335 294 185 13
246 241 244 244 238 225 233 233 226 217 219 221 225 220 211 233 225 189 174 179 175 152 142 246 213 187 246 166 216 206 254 230 271 271 180 113 170 225 243 260 285 338 310 327 172 311 339
242 246 241 239 228 233 228 232 222 216 216 219 225 213 207 223 209 211 194 167 163 172 153 153 351 179 135 172 215 252 228 245 308 254 205 186 174 207 182 245 255 347 320 31 329 329 334
242 237 238 243 229 226 224 229 212 210 211 205 211 202 203 209 199 208 202 197 197 174 173 188 202 164 202 192 169 183 263 261 188 258 43 213 280 182 238 350 109 63 84 37 351 345 349